OAL017 LGAV-LIBR

Flight info

Callsign OAL017
Flight time 0h 59m
Altitude 34000
Route KOR UL53 KRK UL995 TIGRA DCT DAMIC
Aircraft B38M/M-SDE1FGHILORVWXY/HB1

Departure

Time 2026-04-17 22:02
Airport Athens Eleftherios Venizelos International Airport (LGAV)

Arrival

Time 2026-04-17 23:01
Airport Brindisi Airport (LIBR)
Time Latitude Longitude Altitude Speed Heading
2026-04-17 21:54 37.93075 23.94230 304 ft 0 kts 37°
2026-04-17 21:56 37.93059 23.94215 305 ft 4 kts 37°
2026-04-17 21:57 37.93061 23.94217 305 ft 2 kts 37°
2026-04-17 21:57 37.93055 23.94211 305 ft 4 kts 37°
2026-04-17 21:57 37.93032 23.94189 304 ft 4 kts 37°
2026-04-17 21:57 37.93008 23.94169 304 ft 4 kts
2026-04-17 21:58 37.92995 23.94173 304 ft 1 kts 306°
2026-04-17 21:58 37.93006 23.94155 304 ft 4 kts 306°
2026-04-17 21:58 37.93029 23.94114 305 ft 7 kts 306°
2026-04-17 21:58 37.93066 23.94051 307 ft 11 kts 306°
2026-04-17 21:59 37.93133 23.93937 306 ft 22 kts 308°
2026-04-17 21:59 37.93254 23.93738 306 ft 35 kts 308°
2026-04-17 21:59 37.93360 23.93504 303 ft 31 kts 264°
2026-04-17 21:59 37.93186 23.93291 306 ft 42 kts 216°
2026-04-17 22:00 37.92917 23.93040 302 ft 54 kts 217°
2026-04-17 22:00 37.92618 23.92755 305 ft 41 kts 217°
2026-04-17 22:00 37.92585 23.92523 304 ft 18 kts 324°
2026-04-17 22:00 37.92618 23.92514 303 ft 0 kts 357°
2026-04-17 22:01 37.92631 23.92513 303 ft 7 kts 357°
2026-04-17 22:01 37.92727 23.92506 304 ft 20 kts 356°
2026-04-17 22:01 37.92875 23.92591 300 ft 37 kts 38°
2026-04-17 22:02 37.93291 23.92982 294 ft 109 kts 36°
2026-04-17 22:02 37.94045 23.93693 533 ft 149 kts 36°
2026-04-17 22:02 37.94923 23.94544 1188 ft 166 kts 34°
2026-04-17 22:02 37.95835 23.95442 2230 ft 162 kts 33°
2026-04-17 22:03 37.96706 23.96266 3199 ft 160 kts 30°
2026-04-17 22:03 37.97686 23.97118 3720 ft 181 kts 31°
2026-04-17 22:03 37.98770 23.98083 4318 ft 200 kts 32°
2026-04-17 22:03 37.99955 23.99148 4957 ft 217 kts 33°
2026-04-17 22:04 38.01209 24.00289 5791 ft 223 kts 34°
2026-04-17 22:04 38.02480 24.01450 6707 ft 229 kts 34°
2026-04-17 22:04 38.03796 24.02657 7453 ft 238 kts 35°
2026-04-17 22:04 38.05156 24.03908 8304 ft 242 kts 36°
2026-04-17 22:05 38.06535 24.05166 9139 ft 248 kts 34°
2026-04-17 22:05 38.08176 24.06060 9637 ft 270 kts
2026-04-17 22:05 38.10084 24.05740 10109 ft 291 kts 337°
2026-04-17 22:05 38.11707 24.04080 10588 ft 314 kts 308°
2026-04-17 22:06 38.12515 24.01451 11198 ft 332 kts 278°
2026-04-17 22:06 38.12239 23.98521 11890 ft 342 kts 249°
2026-04-17 22:06 38.10935 23.95971 12651 ft 349 kts 227°
2026-04-17 22:06 38.09468 23.93471 13379 ft 358 kts 244°
2026-04-17 22:07 38.08731 23.90438 14076 ft 365 kts 260°
2026-04-17 22:07 38.08210 23.87283 15005 ft 366 kts 259°
2026-04-17 22:07 38.07692 23.84118 15904 ft 366 kts 260°
2026-04-17 22:07 38.07179 23.80927 16688 ft 373 kts 261°
2026-04-17 22:08 38.06660 23.77663 17371 ft 380 kts 261°
2026-04-17 22:08 38.06137 23.74359 18141 ft 383 kts 261°
2026-04-17 22:08 38.05611 23.71045 18960 ft 382 kts 261°
2026-04-17 22:08 38.05091 23.67777 19643 ft 384 kts 261°
2026-04-17 22:09 38.04552 23.64390 20253 ft 389 kts 261°
2026-04-17 22:09 38.04021 23.61054 20851 ft 395 kts 261°
2026-04-17 22:09 38.03474 23.57631 21572 ft 395 kts 262°
2026-04-17 22:09 38.02925 23.54204 22252 ft 398 kts 261°
2026-04-17 22:10 38.02371 23.50750 22848 ft 402 kts 261°
2026-04-17 22:10 38.01809 23.47253 23426 ft 407 kts 262°
2026-04-17 22:10 38.01242 23.43727 23983 ft 410 kts 261°
2026-04-17 22:10 38.00670 23.40187 24536 ft 411 kts 260°
2026-04-17 22:11 38.00094 23.36628 25075 ft 413 kts 260°
2026-04-17 22:11 37.99511 23.33029 25433 ft 420 kts 260°
2026-04-17 22:11 37.98919 23.29385 25917 ft 423 kts 259°
2026-04-17 22:11 37.98324 23.25730 26431 ft 425 kts 259°
2026-04-17 22:12 37.97724 23.22051 26927 ft 428 kts 259°
2026-04-17 22:12 37.97116 23.18333 27272 ft 434 kts 258°
2026-04-17 22:12 37.96498 23.14559 27671 ft 438 kts 258°
2026-04-17 22:12 37.95876 23.10774 28251 ft 438 kts 258°
2026-04-17 22:13 37.95255 23.06989 28773 ft 438 kts 258°
2026-04-17 22:13 37.94633 23.03211 29320 ft 439 kts 258°
2026-04-17 22:13 37.94020 22.99402 29673 ft 444 kts 261°
2026-04-17 22:13 37.93922 22.95499 30087 ft 446 kts 277°
2026-04-17 22:14 37.94661 22.91663 30215 ft 454 kts 293°
2026-04-17 22:14 37.96177 22.88221 30571 ft 452 kts 305°
2026-04-17 22:14 37.97925 22.84922 31068 ft 451 kts 304°
2026-04-17 22:14 37.99690 22.81608 31334 ft 456 kts 305°
2026-04-17 22:15 38.01489 22.78282 31697 ft 457 kts 305°
2026-04-17 22:15 38.03300 22.74963 32050 ft 459 kts 305°
2026-04-17 22:15 38.05126 22.71628 32416 ft 461 kts 305°
2026-04-17 22:15 38.06959 22.68285 32769 ft 462 kts 305°
2026-04-17 22:16 38.08793 22.64937 33220 ft 462 kts 305°
2026-04-17 22:16 38.10624 22.61594 33667 ft 461 kts 305°
2026-04-17 22:16 38.12460 22.58236 33922 ft 463 kts 304°
2026-04-17 22:17 38.16118 22.51540 33907 ft 460 kts 304°
2026-04-17 22:17 38.19756 22.44864 33899 ft 459 kts 304°
2026-04-17 22:18 38.23379 22.38202 33909 ft 457 kts 304°
2026-04-17 22:18 38.26987 22.31556 33906 ft 457 kts 304°
2026-04-17 22:19 38.30603 22.24883 33906 ft 458 kts 305°
2026-04-17 22:19 38.34212 22.18201 33910 ft 457 kts 304°
2026-04-17 22:20 38.37812 22.11524 33899 ft 457 kts 306°
2026-04-17 22:20 38.41431 22.04800 33899 ft 462 kts 306°
2026-04-17 22:21 38.45062 21.98037 33903 ft 462 kts 306°
2026-04-17 22:21 38.48671 21.91304 33891 ft 459 kts 306°
2026-04-17 22:22 38.52262 21.84589 33902 ft 457 kts 305°
2026-04-17 22:22 38.55824 21.77911 33922 ft 459 kts 305°
2026-04-17 22:23 38.59392 21.71210 33901 ft 454 kts 305°
2026-04-17 22:23 38.62940 21.64532 33911 ft 454 kts 305°
2026-04-17 22:24 38.66487 21.57842 33915 ft 454 kts 305°
2026-04-17 22:24 38.70029 21.51149 33904 ft 454 kts 305°
2026-04-17 22:25 38.73566 21.44451 33894 ft 454 kts 305°
2026-04-17 22:25 38.77103 21.37739 33890 ft 454 kts 305°
2026-04-17 22:26 38.80634 21.31023 33901 ft 454 kts 305°
2026-04-17 22:26 38.84158 21.24309 33891 ft 454 kts 305°
2026-04-17 22:27 38.87680 21.17583 33898 ft 454 kts 305°
2026-04-17 22:27 38.91198 21.10852 33893 ft 453 kts 305°
2026-04-17 22:28 38.94712 21.04114 33897 ft 455 kts 305°
2026-04-17 22:28 38.98226 20.97364 33884 ft 453 kts 304°
2026-04-17 22:29 39.01700 20.90667 33882 ft 449 kts 304°
2026-04-17 22:29 39.05160 20.83989 33887 ft 449 kts 304°
2026-04-17 22:30 39.08620 20.77295 33881 ft 450 kts 303°
2026-04-17 22:30 39.12094 20.70561 33883 ft 452 kts 303°
2026-04-17 22:31 39.15567 20.63816 33883 ft 452 kts 303°
2026-04-17 22:31 39.18450 20.58204 33883 ft 451 kts 303°
2026-04-17 22:32 39.22475 20.50354 33881 ft 451 kts 303°
2026-04-17 22:32 39.25373 20.44690 33876 ft 452 kts 303°
2026-04-17 22:33 39.28836 20.37908 33881 ft 453 kts 303°
2026-04-17 22:33 39.32298 20.31114 33873 ft 453 kts 302°
2026-04-17 22:34 39.35751 20.24323 33880 ft 452 kts 302°
2026-04-17 22:34 39.39167 20.17592 33183 ft 444 kts 302°
2026-04-17 22:34 39.40858 20.14254 32502 ft 444 kts 302°
2026-04-17 22:35 39.42541 20.10927 31933 ft 441 kts 302°
2026-04-17 22:35 39.44221 20.07636 31452 ft 436 kts 304°
2026-04-17 22:35 39.46055 20.04525 30909 ft 433 kts 306°
2026-04-17 22:35 39.47871 20.01438 30412 ft 429 kts 306°
2026-04-17 22:36 39.49658 19.98367 29936 ft 425 kts 306°
2026-04-17 22:36 39.51420 19.95326 29375 ft 421 kts 306°
2026-04-17 22:36 39.53162 19.92310 28883 ft 415 kts 306°
2026-04-17 22:36 39.54883 19.89327 28394 ft 411 kts 307°
2026-04-17 22:37 39.56592 19.86361 27662 ft 413 kts 307°
2026-04-17 22:37 39.58309 19.83381 27087 ft 411 kts 307°
2026-04-17 22:37 39.60004 19.80432 26644 ft 406 kts 307°
2026-04-17 22:37 39.61684 19.77508 26186 ft 402 kts 307°
2026-04-17 22:38 39.63326 19.74649 25745 ft 399 kts 307°
2026-04-17 22:38 39.64975 19.71775 25303 ft 396 kts 307°
2026-04-17 22:38 39.66616 19.68911 24877 ft 394 kts 308°
2026-04-17 22:38 39.68247 19.66064 24457 ft 391 kts 308°
2026-04-17 22:39 39.69864 19.63235 24050 ft 389 kts 307°
2026-04-17 22:39 39.71470 19.60426 23642 ft 387 kts 307°
2026-04-17 22:39 39.74656 19.54845 22710 ft 382 kts 307°
2026-04-17 22:40 39.76233 19.52079 22249 ft 379 kts 308°
2026-04-17 22:40 39.77798 19.49333 21788 ft 376 kts 308°
2026-04-17 22:40 39.79349 19.46606 21328 ft 374 kts 308°
2026-04-17 22:40 39.80887 19.43901 20887 ft 370 kts 309°
2026-04-17 22:41 39.82414 19.41213 20453 ft 368 kts 309°
2026-04-17 22:41 39.83926 19.38549 20086 ft 364 kts 309°
2026-04-17 22:41 39.85424 19.35908 19727 ft 361 kts 309°
2026-04-17 22:41 39.86912 19.33283 19403 ft 360 kts 309°
2026-04-17 22:42 39.88393 19.30667 19072 ft 359 kts 309°
2026-04-17 22:42 39.89872 19.28053 18757 ft 358 kts 309°
2026-04-17 22:42 39.91345 19.25448 18444 ft 356 kts 309°
2026-04-17 22:42 39.92809 19.22855 18110 ft 355 kts 309°
2026-04-17 22:43 39.94267 19.20272 17743 ft 353 kts 309°
2026-04-17 22:43 39.95721 19.17694 17379 ft 352 kts 309°
2026-04-17 22:43 39.97167 19.15126 17020 ft 350 kts 309°
2026-04-17 22:43 39.98602 19.12578 16668 ft 348 kts 309°
2026-04-17 22:44 40.00029 19.10041 16322 ft 345 kts 309°
2026-04-17 22:44 40.01442 19.07528 15979 ft 343 kts 309°
2026-04-17 22:44 40.02850 19.05022 15640 ft 341 kts 309°
2026-04-17 22:44 40.04245 19.02538 15298 ft 339 kts 309°
2026-04-17 22:45 40.05634 19.00064 14975 ft 337 kts 309°
2026-04-17 22:45 40.07018 18.97610 14648 ft 335 kts 309°
2026-04-17 22:45 40.08394 18.95169 14323 ft 333 kts 309°
2026-04-17 22:45 40.09763 18.92738 14001 ft 331 kts 309°
2026-04-17 22:46 40.11123 18.90321 13676 ft 329 kts 309°
2026-04-17 22:46 40.12476 18.87917 13315 ft 327 kts 309°
2026-04-17 22:46 40.13819 18.85528 12960 ft 325 kts 309°
2026-04-17 22:46 40.15150 18.83158 12690 ft 320 kts 309°
2026-04-17 22:47 40.16446 18.80847 12486 ft 311 kts 309°
2026-04-17 22:47 40.17716 18.78581 12192 ft 307 kts 308°
2026-04-17 22:47 40.18972 18.76341 11854 ft 304 kts 309°
2026-04-17 22:47 40.20213 18.74126 11539 ft 300 kts 309°
2026-04-17 22:48 40.21439 18.71934 11225 ft 297 kts 309°
2026-04-17 22:48 40.22652 18.69764 10918 ft 294 kts 310°
2026-04-17 22:48 40.23851 18.67617 10597 ft 291 kts 309°
2026-04-17 22:48 40.25038 18.65490 10328 ft 287 kts 309°
2026-04-17 22:49 40.26198 18.63411 10186 ft 278 kts 309°
2026-04-17 22:49 40.27321 18.61399 10065 ft 269 kts 310°
2026-04-17 22:49 40.28413 18.59441 9837 ft 264 kts 310°
2026-04-17 22:49 40.29494 18.57498 9522 ft 263 kts 309°
2026-04-17 22:50 40.30570 18.55563 9225 ft 261 kts 311°
2026-04-17 22:50 40.31636 18.53649 8932 ft 259 kts 310°
2026-04-17 22:50 40.32692 18.51750 8648 ft 257 kts 309°
2026-04-17 22:50 40.33740 18.49864 8376 ft 254 kts 310°
2026-04-17 22:51 40.34762 18.48024 8104 ft 252 kts 310°
2026-04-17 22:51 40.35798 18.46156 7846 ft 256 kts 309°
2026-04-17 22:51 40.36857 18.44245 7569 ft 262 kts 309°
2026-04-17 22:51 40.37936 18.42302 7285 ft 265 kts 310°
2026-04-17 22:52 40.39017 18.40351 6995 ft 264 kts 310°
2026-04-17 22:52 40.40093 18.38407 6712 ft 262 kts 310°
2026-04-17 22:52 40.41159 18.36478 6416 ft 260 kts 310°
2026-04-17 22:52 40.42219 18.34561 6143 ft 259 kts 310°
2026-04-17 22:53 40.43276 18.32650 5857 ft 258 kts 310°
2026-04-17 22:53 40.44324 18.30752 5562 ft 256 kts 310°
2026-04-17 22:53 40.45365 18.28867 5287 ft 254 kts 310°
2026-04-17 22:53 40.46421 18.27026 5014 ft 251 kts 313°
2026-04-17 22:54 40.47509 18.25234 4719 ft 250 kts 313°
2026-04-17 22:54 40.48544 18.23402 4448 ft 251 kts 302°
2026-04-17 22:54 40.48881 18.21157 4232 ft 256 kts 269°
2026-04-17 22:54 40.48359 18.18937 4118 ft 255 kts 244°
2026-04-17 22:55 40.47485 18.16965 4004 ft 243 kts 255°
2026-04-17 22:55 40.47388 18.14891 3857 ft 220 kts 292°
2026-04-17 22:55 40.48127 18.13257 3755 ft 202 kts 319°
2026-04-17 22:55 40.49130 18.12017 3685 ft 197 kts 323°
2026-04-17 22:56 40.50289 18.11175 3618 ft 183 kts 347°
2026-04-17 22:56 40.51470 18.10789 3536 ft 168 kts 349°
2026-04-17 22:56 40.52561 18.10430 3368 ft 159 kts 342°
2026-04-17 22:56 40.53530 18.09765 3209 ft 157 kts 335°
2026-04-17 22:57 40.54369 18.08850 3134 ft 154 kts 322°
2026-04-17 22:57 40.55119 18.07877 3104 ft 150 kts 323°
2026-04-17 22:57 40.55860 18.06938 2901 ft 145 kts 324°
2026-04-17 22:57 40.56603 18.06010 2645 ft 150 kts 325°
2026-04-17 22:58 40.57362 18.05071 2421 ft 154 kts 324°
2026-04-17 22:58 40.58140 18.04107 2140 ft 151 kts 323°
2026-04-17 22:58 40.58884 18.03175 1854 ft 146 kts 323°
2026-04-17 22:58 40.59627 18.02266 1458 ft 145 kts 323°
2026-04-17 22:59 40.60358 18.01376 1051 ft 141 kts 321°
2026-04-17 22:59 40.61043 18.00542 797 ft 128 kts 319°
2026-04-17 22:59 40.61689 17.99753 630 ft 124 kts 318°
2026-04-17 22:59 40.62316 17.98985 567 ft 123 kts 318°
2026-04-17 23:00 40.62942 17.98222 531 ft 123 kts 318°
2026-04-17 23:00 40.63573 17.97450 508 ft 124 kts 317°
2026-04-17 23:00 40.64206 17.96678 490 ft 123 kts 317°
2026-04-17 23:00 40.64828 17.95919 375 ft 121 kts 317°
2026-04-17 23:01 40.65449 17.95163 171 ft 122 kts 317°
2026-04-17 23:01 40.66072 17.94404 59 ft 120 kts 317°
2026-04-17 23:01 40.66522 17.93865 59 ft 55 kts 317°
2026-04-17 23:01 40.66675 17.93677 55 ft 21 kts 317°
2026-04-17 23:02 40.66721 17.93628 54 ft 7 kts 339°
2026-04-17 23:02 40.66741 17.93633 57 ft 1 kts 45°
2026-04-17 23:02 40.66753 17.93649 52 ft 4 kts 45°
2026-04-17 23:02 40.66780 17.93685 55 ft 7 kts 45°
2026-04-17 23:03 40.66826 17.93748 56 ft 11 kts 52°
2026-04-17 23:03 40.66826 17.93775 57 ft 6 kts 111°
2026-04-17 23:03 40.66768 17.93852 57 ft 18 kts 138°
2026-04-17 23:03 40.66640 17.94005 57 ft 31 kts 138°
2026-04-17 23:04 40.66471 17.94204 59 ft 27 kts 137°
2026-04-17 23:04 40.66380 17.94322 51 ft 23 kts 135°
2026-04-17 23:04 40.66313 17.94404 57 ft 18 kts 139°
2026-04-17 23:04 40.66289 17.94432 53 ft 0 kts 139°
2026-04-17 23:05 40.66279 17.94444 61 ft 7 kts 139°
2026-04-17 23:05 40.66207 17.94526 59 ft 20 kts 139°
2026-04-17 23:05 40.66059 17.94572 58 ft 26 kts 193°
2026-04-17 23:05 40.65885 17.94438 56 ft 33 kts 234°
2026-04-17 23:06 40.65813 17.94250 59 ft 8 kts 271°
2026-04-17 23:06 40.65803 17.94134 58 ft 17 kts 254°
2026-04-17 23:06 40.65745 17.94000 55 ft 10 kts 223°
2026-04-17 23:06 40.65730 17.93982 57 ft 0 kts 223°